Volver al catálogo

STARLINK-4677

ActivoComunicacionesVLEO
NORAD 53600·PAYLOAD·🇺🇸 United States

Lanzado Aug 28, 2022 desde Cape Canaveral Space Force Station

Loading…

Próximos Pases (próximas 24 horas)

TLE

ActualizadoSource: CelesTrak SupGP

Época: Sep 15, 2026, 01:47 UTC

1 53600C 22104N   26258.07479167  .00032486  00000+0  96026-3 0  2583
2 53600  53.1582 101.2860 0001544  74.9574  38.8814 15.34358939    11

Sigue STARLINK-4677 en tiempo real con AllMySat

Download on the App Store